| time (UTC) | temp F | wind direction | speed MPH | gust MPH | rain 1hr in | rain 24hr in | rain mn in | humidity % | barometer mb |
| 20260502130618 | 54 | 299 | 0.0 | 0.0 | 0.00 | 0.00 | 0.00 | 74 | 1013.3 |
| 20260502130116 | 54 | 300 | 0.0 | 0.0 | 0.00 | 0.00 | 0.00 | 77 | 1013.3 |
| 20260502123601 | 52 | 300 | 0.0 | 0.0 | 0.00 | 0.00 | 0.00 | 84 | 1013.3 |
| 20260502123058 | 52 | 300 | 0.0 | 0.0 | 0.00 | 0.00 | 0.00 | 86 | 1013.0 |
| 20260502122554 | 52 | 300 | 0.0 | 0.0 | 0.00 | 0.00 | 0.00 | 84 | 1012.9 |
| 20260502122051 | 52 | 300 | 0.0 | 0.0 | 0.00 | 0.00 | 0.00 | 84 | 1013.1 |
| 20260502121549 | 51 | 300 | 0.0 | 0.0 | 0.00 | 0.00 | 0.00 | 84 | 1013.0 |
| 20260502121046 | 52 | 300 | 0.0 | 0.0 | 0.00 | 0.00 | 0.00 | 87 | 1013.0 |
| 20260502120542 | 51 | 299 | 0.0 | 0.0 | 0.00 | 0.00 | 0.00 | 85 | 1013.0 |
| 20260502115538 | 51 | 299 | 0.0 | 0.0 | 0.00 | 0.00 | 0.00 | 85 | 1012.8 |
| 20260502115033 | 51 | 300 | 0.0 | 0.0 | 0.00 | 0.00 | 0.00 | 87 | 1012.8 |
| 20260502114530 | 51 | 300 | 0.0 | 0.0 | 0.00 | 0.00 | 0.00 | 86 | 1013.0 |
| 20260502114027 | 51 | 300 | 0.0 | 0.0 | 0.00 | 0.00 | 0.00 | 85 | 1012.8 |
| 20260502113524 | 51 | 300 | 0.0 | 0.0 | 0.00 | 0.00 | 0.00 | 84 | 1012.8 |
| 20260502113023 | 51 | 300 | 0.0 | 0.0 | 0.00 | 0.00 | 0.00 | 85 | 1012.7 |
| 20260502112520 | 51 | 300 | 0.0 | 0.0 | 0.00 | 0.00 | 0.00 | 86 | 1012.5 |
| 20260502112018 | 50 | 299 | 0.0 | 0.0 | 0.00 | 0.00 | 0.00 | 85 | 1012.6 |
| 20260502111515 | 50 | 299 | 0.0 | 0.0 | 0.00 | 0.00 | 0.00 | 83 | 1012.5 |
| 20260502111012 | 50 | 299 | 0.0 | 0.0 | 0.00 | 0.00 | 0.00 | 84 | 1012.6 |
| 20260502110509 | 51 | 300 | 0.0 | 0.0 | 0.00 | 0.00 | 0.00 | 85 | 1012.8 |
| 20260502110007 | 50 | 300 | 0.0 | 0.0 | 0.00 | 0.00 | 0.00 | 83 | 1012.7 |
| 20260502105504 | 50 | 300 | 0.0 | 0.0 | 0.00 | 0.00 | 0.00 | 84 | 1012.9 |
| 20260502105002 | 51 | 301 | 0.0 | 0.0 | 0.00 | 0.00 | 0.00 | 84 | 1012.8 |
| 20260502104459 | 51 | 300 | 0.0 | 0.0 | 0.00 | 0.00 | 0.00 | 83 | 1012.7 |
| 20260502103956 | 50 | 300 | 0.0 | 0.0 | 0.00 | 0.00 | 0.00 | 82 | 1012.7 |
| 20260502103453 | 50 | 300 | 0.0 | 0.0 | 0.00 | 0.00 | 0.00 | 82 | 1012.9 |
| 20260502102950 | 51 | 300 | 0.0 | 0.0 | 0.00 | 0.00 | 0.00 | 82 | 1012.8 |
| 20260502102447 | 51 | 300 | 0.0 | 0.0 | 0.00 | 0.00 | 0.00 | 81 | 1012.8 |
| 20260502101944 | 51 | 301 | 0.0 | 0.0 | 0.00 | 0.00 | 0.00 | 80 | 1012.7 |
| 20260502101443 | 51 | 302 | 0.0 | 0.0 | 0.00 | 0.00 | 0.00 | 80 | 1012.9 |
| 20260502100941 | 51 | 297 | 0.0 | 0.0 | 0.00 | 0.00 | 0.00 | 77 | 1012.5 |
| 20260502100439 | 51 | 297 | 0.0 | 0.0 | 0.00 | 0.00 | 0.00 | 77 | 1012.7 |
| 20260502091414 | 52 | 277 | 0.0 | 0.0 | 0.00 | 0.00 | 0.00 | 78 | 1012.3 |
| 20260502090911 | 51 | 313 | 0.0 | 1.0 | 0.00 | 0.00 | 0.00 | 80 | 1012.2 |
| 20260502090408 | 51 | 307 | 0.0 | 1.0 | 0.00 | 0.00 | 0.00 | 81 | 1012.1 |
| 20260502071302 | 51 | 22 | 1.0 | 1.0 | 0.00 | 0.00 | 0.00 | 86 | 1011.5 |
| 20260502070800 | 51 | 108 | 2.0 | 3.0 | 0.00 | 0.00 | 0.00 | 86 | 1011.2 |
| 20260502070258 | 51 | 203 | 0.0 | 0.0 | 0.00 | 0.00 | 0.00 | 86 | 1011.4 |
| 20260502065757 | 51 | 50 | 2.0 | 2.0 | 0.00 | 0.00 | 0.00 | 87 | 1011.4 |
| 20260502065254 | 51 | 200 | 0.0 | 0.0 | 0.00 | 0.00 | 0.00 | 87 | 1011.5 |
| 20260502064752 | 50 | 21 | 1.0 | 1.0 | 0.00 | 0.00 | 0.00 | 87 | 1011.5 |
| 20260502064250 | 50 | 13 | 1.0 | 1.0 | 0.00 | 0.00 | 0.00 | 87 | 1011.5 |
| 20260502063747 | 50 | 5 | 0.0 | 1.0 | 0.00 | 0.00 | 0.00 | 87 | 1011.5 |
| 20260502063245 | 50 | 102 | 1.0 | 2.0 | 0.00 | 0.00 | 0.00 | 88 | 1011.6 |
| 20260502062741 | 50 | 1 | 1.0 | 2.0 | 0.00 | 0.00 | 0.00 | 89 | 1011.6 |
| 20260502062239 | 49 | 304 | 0.0 | 0.0 | 0.00 | 0.00 | 0.00 | 90 | 1011.7 |
| 20260502061738 | 49 | 303 | 0.0 | 0.0 | 0.00 | 0.00 | 0.00 | 89 | 1011.8 |
| 20260502061235 | 49 | 303 | 0.0 | 0.0 | 0.00 | 0.00 | 0.00 | 89 | 1011.9 |
| 20260502060730 | 49 | 303 | 0.0 | 0.0 | 0.00 | 0.00 | 0.00 | 89 | 1011.8 |
| 20260502060226 | 49 | 304 | 0.0 | 0.0 | 0.00 | 0.00 | 0.00 | 89 | 1011.9 |
| 20260502055724 | 49 | 303 | 0.0 | 0.0 | 0.00 | 0.00 | 0.00 | 89 | 1011.8 |
| 20260502055222 | 49 | 303 | 0.0 | 0.0 | 0.00 | 0.00 | 0.00 | 89 | 1011.6 |
| 20260502054721 | 49 | 303 | 0.0 | 0.0 | 0.00 | 0.00 | 0.00 | 88 | 1011.7 |
| 20260502054218 | 49 | 304 | 0.0 | 0.0 | 0.00 | 0.00 | 0.00 | 88 | 1011.9 |
| 20260502053715 | 49 | 303 | 0.0 | 0.0 | 0.00 | 0.00 | 0.00 | 88 | 1011.9 |
| 20260502053212 | 49 | 303 | 0.0 | 0.0 | 0.00 | 0.00 | 0.00 | 87 | 1012.0 |
| 20260502052710 | 50 | 303 | 0.0 | 0.0 | 0.00 | 0.00 | 0.00 | 87 | 1012.0 |
| 20260502052209 | 50 | 303 | 0.0 | 1.0 | 0.00 | 0.00 | 0.00 | 86 | 1012.1 |
| 20260502051706 | 50 | 294 | 0.0 | 0.0 | 0.00 | 0.00 | 0.00 | 86 | 1012.3 |
| 20260502051204 | 50 | 300 | 1.0 | 2.0 | 0.00 | 0.00 | 0.00 | 86 | 1012.3 |
| 20260502050700 | 51 | 206 | 1.0 | 1.0 | 0.00 | 0.00 | 0.00 | 86 | 1012.3 |
| 20260502050157 | 51 | 237 | 0.0 | 0.0 | 0.00 | 0.00 | 0.00 | 85 | 1012.4 |
| 20260502045653 | 50 | 198 | 0.0 | 2.0 | 0.00 | 0.00 | 0.00 | 86 | 1012.6 |
| 20260502045151 | 49 | 231 | 1.0 | 1.0 | 0.00 | 0.00 | 0.00 | 88 | 1012.2 |
| 20260502044647 | 49 | 238 | 0.0 | 0.0 | 0.00 | 0.00 | 0.00 | 88 | 1011.9 |
| 20260502044143 | 49 | 238 | 0.0 | 0.0 | 0.00 | 0.00 | 0.00 | 87 | 1012.3 |
| 20260502043642 | 50 | 238 | 0.0 | 0.0 | 0.00 | 0.00 | 0.00 | 86 | 1012.2 |
| 20260502043139 | 50 | 238 | 0.0 | 0.0 | 0.00 | 0.00 | 0.00 | 86 | 1012.0 |
| 20260502042638 | 50 | 238 | 0.0 | 0.0 | 0.00 | 0.00 | 0.00 | 85 | 1012.1 |
| 20260502042135 | 50 | 238 | 0.0 | 0.0 | 0.00 | 0.00 | 0.00 | 85 | 1012.1 |
| 20260502041633 | 50 | 238 | 0.0 | 0.0 | 0.00 | 0.00 | 0.00 | 85 | 1011.9 |
| 20260502041130 | 50 | 238 | 0.0 | 0.0 | 0.00 | 0.00 | 0.00 | 85 | 1012.2 |
| 20260502040626 | 50 | 238 | 0.0 | 0.0 | 0.00 | 0.00 | 0.00 | 84 | 1012.5 |
| 20260502040124 | 51 | 238 | 0.0 | 0.0 | 0.00 | 0.00 | 0.00 | 84 | 1012.2 |
| 20260502035620 | 51 | 238 | 0.0 | 0.0 | 0.00 | 0.00 | 0.00 | 83 | 1012.2 |
| 20260502035117 | 51 | 238 | 0.0 | 0.0 | 0.00 | 0.00 | 0.00 | 82 | 1012.3 |
| 20260502034615 | 51 | 236 | 0.0 | 0.0 | 0.00 | 0.00 | 0.00 | 82 | 1012.1 |
| 20260502034113 | 52 | 236 | 0.0 | 0.0 | 0.00 | 0.00 | 0.00 | 81 | 1012.2 |
| 20260502033611 | 52 | 236 | 0.0 | 0.0 | 0.00 | 0.00 | 0.00 | 80 | 1012.3 |
| 20260502033108 | 52 | 236 | 0.0 | 0.0 | 0.00 | 0.00 | 0.00 | 80 | 1012.3 |
| 20260502032604 | 52 | 236 | 0.0 | 0.0 | 0.00 | 0.00 | 0.00 | 80 | 1012.4 |
| 20260502032100 | 52 | 239 | 0.0 | 1.0 | 0.00 | 0.00 | 0.00 | 80 | 1012.3 |
| 20260502031558 | 52 | 240 | 0.0 | 0.0 | 0.00 | 0.00 | 0.00 | 79 | 1012.2 |
| 20260502031056 | 53 | 240 | 0.0 | 0.0 | 0.00 | 0.00 | 0.00 | 78 | 1012.1 |
| 20260502030555 | 53 | 240 | 0.0 | 0.0 | 0.00 | 0.00 | 0.00 | 78 | 1012.6 |
| 20260502030052 | 53 | 240 | 0.0 | 0.0 | 0.00 | 0.00 | 0.00 | 77 | 1012.3 |
| 20260502025549 | 53 | 239 | 0.0 | 0.0 | 0.00 | 0.00 | 0.00 | 76 | 1012.4 |
| 20260502025047 | 54 | 241 | 0.0 | 2.0 | 0.00 | 0.00 | 0.00 | 75 | 1012.2 |
| 20260502024544 | 54 | 229 | 0.0 | 1.0 | 0.00 | 0.00 | 0.00 | 75 | 1012.2 |
| 20260502024043 | 53 | 230 | 0.0 | 1.0 | 0.00 | 0.00 | 0.00 | 75 | 1012.1 |
| 20260502023540 | 54 | 247 | 0.0 | 0.0 | 0.00 | 0.00 | 0.00 | 75 | 1012.2 |
| 20260502023037 | 54 | 305 | 0.0 | 0.0 | 0.00 | 0.00 | 0.00 | 74 | 1012.1 |
| 20260502022534 | 54 | 303 | 0.0 | 0.0 | 0.00 | 0.00 | 0.00 | 74 | 1011.8 |
| 20260502022032 | 54 | 300 | 0.0 | 0.0 | 0.00 | 0.00 | 0.00 | 74 | 1011.9 |
| 20260502021529 | 54 | 279 | 0.0 | 0.0 | 0.00 | 0.00 | 0.00 | 74 | 1011.9 |
| 20260502021025 | 54 | 279 | 0.0 | 0.0 | 0.00 | 0.00 | 0.00 | 73 | 1011.9 |
| 20260502020523 | 55 | 279 | 0.0 | 0.0 | 0.00 | 0.00 | 0.00 | 72 | 1011.7 |
| 20260502020020 | 55 | 279 | 0.0 | 0.0 | 0.00 | 0.00 | 0.00 | 72 | 1011.7 |
| 20260502015518 | 55 | 289 | 0.0 | 1.0 | 0.00 | 0.00 | 0.00 | 71 | 1011.8 |
| 20260502015014 | 55 | 339 | 0.0 | 2.0 | 0.00 | 0.00 | 0.00 | 71 | 1012.0 |
| 20260502014511 | 55 | 35 | 1.0 | 1.0 | 0.00 | 0.00 | 0.00 | 71 | 1011.7 |
| 20260502014008 | 55 | 305 | 0.0 | 0.0 | 0.00 | 0.00 | 0.00 | 70 | 1011.9 |
| 20260502013503 | 55 | 332 | 0.0 | 0.0 | 0.00 | 0.00 | 0.00 | 70 | 1011.7 |
| 20260502013000 | 56 | 291 | 0.0 | 1.0 | 0.00 | 0.00 | 0.00 | 70 | 1011.8 |
| 20260502012457 | 56 | 313 | 0.0 | 0.0 | 0.00 | 0.00 | 0.00 | 69 | 1011.8 |
| 20260502011955 | 56 | 290 | 0.0 | 0.0 | 0.00 | 0.00 | 0.00 | 68 | 1011.8 |
| 20260502011451 | 56 | 290 | 0.0 | 1.0 | 0.00 | 0.00 | 0.00 | 68 | 1011.8 |
| 20260502010948 | 57 | 291 | 0.0 | 0.0 | 0.00 | 0.00 | 0.00 | 67 | 1011.5 |
| 20260502010445 | 57 | 299 | 0.0 | 2.0 | 0.00 | 0.00 | 0.00 | 66 | 1011.3 |
| 20260502005941 | 57 | 276 | 0.0 | 0.0 | 0.00 | 0.00 | 0.00 | 65 | 1011.3 |
| 20260502005439 | 57 | 261 | 0.0 | 1.0 | 0.00 | 0.00 | 0.00 | 65 | 1011.2 |
| 20260502004937 | 58 | 282 | 1.0 | 1.0 | 0.00 | 0.00 | 0.00 | 64 | 1011.2 |
| 20260502004437 | 58 | 312 | 1.0 | 3.0 | 0.00 | 0.00 | 0.00 | 63 | 1011.3 |
| 20260502003935 | 58 | 291 | 1.0 | 3.0 | 0.00 | 0.00 | 0.00 | 63 | 1011.1 |
| 20260502003432 | 59 | 303 | 1.0 | 4.0 | 0.00 | 0.00 | 0.00 | 62 | 1011.0 |
| 20260502002928 | 59 | 301 | 1.0 | 3.0 | 0.00 | 0.00 | 0.00 | 62 | 1011.0 |
| 20260502002426 | 59 | 315 | 2.0 | 2.0 | 0.00 | 0.00 | 0.00 | 61 | 1010.8 |
| 20260502001923 | 59 | 320 | 1.0 | 3.0 | 0.00 | 0.00 | 0.00 | 60 | 1010.4 |
| 20260502001420 | 59 | 331 | 1.0 | 2.0 | 0.00 | 0.00 | 0.00 | 60 | 1010.4 |
| 20260502000918 | 60 | 303 | 1.0 | 3.0 | 0.00 | 0.00 | 0.00 | 59 | 1010.4 |
| 20260502000417 | 60 | 314 | 3.0 | 4.0 | 0.00 | 0.00 | 0.00 | 58 | 1010.4 |
| 20260501235912 | 60 | 329 | 6.0 | 8.0 | 0.00 | 0.00 | 0.00 | 57 | 1010.4 |
| 20260501235408 | 61 | 286 | 0.0 | 1.0 | 0.00 | 0.00 | 0.00 | 57 | 1010.4 |
| 20260501234903 | 61 | 307 | 1.0 | 3.0 | 0.00 | 0.00 | 0.00 | 56 | 1010.2 |
| 20260501234400 | 61 | 271 | 1.0 | 2.0 | 0.00 | 0.00 | 0.00 | 56 | 1010.4 |
| 20260501233859 | 62 | 266 | 2.0 | 2.0 | 0.00 | 0.00 | 0.00 | 55 | 1010.4 |
| 20260501233356 | 62 | 277 | 1.0 | 1.0 | 0.00 | 0.00 | 0.00 | 53 | 1010.5 |
| 20260501232851 | 62 | 269 | 0.0 | 0.0 | 0.00 | 0.00 | 0.00 | 53 | 1010.3 |
| 20260501232349 | 63 | 277 | 0.0 | 0.0 | 0.00 | 0.00 | 0.00 | 52 | 1010.3 |
| 20260501231846 | 63 | 267 | 0.0 | 0.0 | 0.00 | 0.00 | 0.00 | 51 | 1010.3 |
| 20260501231344 | 64 | 238 | 0.0 | 2.0 | 0.00 | 0.00 | 0.00 | 50 | 1010.2 |
| 20260501230842 | 64 | 282 | 0.0 | 2.0 | 0.00 | 0.00 | 0.00 | 49 | 1010.2 |
| 20260501230341 | 65 | 253 | 0.0 | 1.0 | 0.00 | 0.00 | 0.00 | 48 | 1010.3 |
| 20260501225838 | 65 | 282 | 0.0 | 2.0 | 0.00 | 0.00 | 0.00 | 49 | 1010.3 |
| 20260501225336 | 66 | 20 | 0.0 | 2.0 | 0.00 | 0.00 | 0.00 | 47 | 1010.2 |
| 20260501224831 | 66 | 281 | 0.0 | 1.0 | 0.00 | 0.00 | 0.00 | 47 | 1010.2 |
| 20260501224329 | 67 | 297 | 0.0 | 4.0 | 0.00 | 0.00 | 0.00 | 45 | 1010.1 |
| 20260501223825 | 67 | 224 | 3.0 | 4.0 | 0.00 | 0.00 | 0.00 | 45 | 1010.3 |
| 20260501223321 | 67 | 104 | 2.0 | 4.0 | 0.00 | 0.00 | 0.00 | 42 | 1010.3 |
| 20260501222817 | 68 | 65 | 1.0 | 3.0 | 0.00 | 0.00 | 0.00 | 41 | 1010.3 |
| 20260501222315 | 68 | 270 | 2.0 | 2.0 | 0.00 | 0.00 | 0.00 | 43 | 1010.4 |
| 20260501221811 | 68 | 240 | 1.0 | 4.0 | 0.00 | 0.00 | 0.00 | 41 | 1010.4 |
| 20260501221308 | 69 | 9 | 1.0 | 3.0 | 0.00 | 0.00 | 0.00 | 44 | 1010.6 |
| 20260501220807 | 68 | 25 | 0.0 | 1.0 | 0.00 | 0.00 | 0.00 | 42 | 1010.7 |
| 20260501220303 | 68 | 302 | 1.0 | 4.0 | 0.00 | 0.00 | 0.00 | 41 | 1010.6 |
| 20260501215800 | 69 | 316 | 2.0 | 4.0 | 0.00 | 0.00 | 0.00 | 40 | 1010.6 |
| 20260501215255 | 68 | 302 | 1.0 | 1.0 | 0.00 | 0.00 | 0.00 | 44 | 1010.7 |
| 20260501214751 | 68 | 149 | 2.0 | 6.0 | 0.00 | 0.00 | 0.00 | 43 | 1010.7 |
| 20260501214247 | 68 | 113 | 1.0 | 4.0 | 0.00 | 0.00 | 0.00 | 42 | 1010.8 |
| 20260501213743 | 68 | 8 | 3.0 | 4.0 | 0.00 | 0.00 | 0.00 | 42 | 1011.0 |
| 20260501213240 | 68 | 297 | 0.0 | 2.0 | 0.00 | 0.00 | 0.00 | 42 | 1010.9 |
| 20260501212736 | 68 | 282 | 0.0 | 4.0 | 0.00 | 0.00 | 0.00 | 42 | 1010.9 |
| 20260501212232 | 69 | 52 | 2.0 | 7.0 | 0.00 | 0.00 | 0.00 | 40 | 1010.8 |
| 20260501211730 | 69 | 297 | 0.0 | 3.0 | 0.00 | 0.00 | 0.00 | 39 | 1010.7 |
| 20260501211227 | 68 | 299 | 2.0 | 2.0 | 0.00 | 0.00 | 0.00 | 39 | 1010.9 |
| 20260501210724 | 68 | 8 | 2.0 | 6.0 | 0.00 | 0.00 | 0.00 | 40 | 1010.8 |
| 20260501210220 | 68 | 71 | 2.0 | 2.0 | 0.00 | 0.00 | 0.00 | 40 | 1010.9 |
| 20260501205717 | 68 | 21 | 2.0 | 3.0 | 0.00 | 0.00 | 0.00 | 40 | 1011.2 |
| 20260501205214 | 68 | 16 | 3.0 | 6.0 | 0.00 | 0.00 | 0.00 | 38 | 1011.1 |
| 20260501204711 | 68 | 315 | 0.0 | 3.0 | 0.00 | 0.00 | 0.00 | 38 | 1011.2 |
| 20260501204208 | 67 | 37 | 2.0 | 4.0 | 0.00 | 0.00 | 0.00 | 39 | 1011.0 |
| 20260501203703 | 68 | 97 | 2.0 | 4.0 | 0.00 | 0.00 | 0.00 | 38 | 1011.3 |
| 20260501203201 | 68 | 36 | 2.0 | 4.0 | 0.00 | 0.00 | 0.00 | 38 | 1011.3 |
| 20260501202658 | 68 | 54 | 3.0 | 3.0 | 0.00 | 0.00 | 0.00 | 38 | 1011.3 |
| 20260501202155 | 69 | 311 | 3.0 | 8.0 | 0.00 | 0.00 | 0.00 | 36 | 1011.3 |
| 20260501201652 | 69 | 58 | 3.0 | 4.0 | 0.00 | 0.00 | 0.00 | 38 | 1011.3 |
| 20260501201148 | 69 | 149 | 3.0 | 4.0 | 0.00 | 0.00 | 0.00 | 36 | 1011.5 |
| 20260501200645 | 68 | 82 | 3.0 | 3.0 | 0.00 | 0.00 | 0.00 | 36 | 1011.5 |
| 20260501200143 | 68 | 29 | 1.0 | 7.0 | 0.00 | 0.00 | 0.00 | 38 | 1011.7 |
| 20260501195641 | 68 | 166 | 1.0 | 6.0 | 0.00 | 0.00 | 0.00 | 35 | 1011.7 |
| 20260501195136 | 69 | 70 | 3.0 | 4.0 | 0.00 | 0.00 | 0.00 | 35 | 1011.9 |
| 20260501194631 | 69 | 276 | 0.0 | 2.0 | 0.00 | 0.00 | 0.00 | 36 | 1012.0 |
| 20260501194127 | 69 | 345 | 2.0 | 7.0 | 0.00 | 0.00 | 0.00 | 35 | 1012.1 |
| 20260501193625 | 69 | 16 | 3.0 | 4.0 | 0.00 | 0.00 | 0.00 | 32 | 1012.2 |
| 20260501193123 | 69 | 84 | 2.0 | 3.0 | 0.00 | 0.00 | 0.00 | 37 | 1012.4 |
| 20260501192620 | 69 | 314 | 3.0 | 6.0 | 0.00 | 0.00 | 0.00 | 38 | 1012.3 |
| 20260501192117 | 68 | 278 | 3.0 | 3.0 | 0.00 | 0.00 | 0.00 | 34 | 1012.3 |
| 20260501191614 | 67 | 56 | 3.0 | 4.0 | 0.00 | 0.00 | 0.00 | 36 | 1012.3 |
| 20260501191111 | 68 | 27 | 4.0 | 6.0 | 0.00 | 0.00 | 0.00 | 33 | 1012.6 |
| 20260501190608 | 67 | 286 | 0.0 | 2.0 | 0.00 | 0.00 | 0.00 | 34 | 1012.5 |
| 20260501185559 | 68 | 20 | 4.0 | 7.0 | 0.00 | 0.00 | 0.00 | 34 | 1012.8 |
| 20260501185055 | 68 | 295 | 1.0 | 6.0 | 0.00 | 0.00 | 0.00 | 36 | 1012.9 |
| 20260501184551 | 67 | 173 | 1.0 | 1.0 | 0.00 | 0.00 | 0.00 | 36 | 1012.8 |
| 20260501184046 | 67 | 54 | 3.0 | 6.0 | 0.00 | 0.00 | 0.00 | 39 | 1012.9 |
| 20260501183543 | 67 | 297 | 2.0 | 7.0 | 0.00 | 0.00 | 0.00 | 37 | 1013.1 |
| 20260501183040 | 67 | 328 | 5.0 | 7.0 | 0.00 | 0.00 | 0.00 | 34 | 1013.3 |
| 20260501182536 | 67 | 282 | 0.0 | 3.0 | 0.00 | 0.00 | 0.00 | 34 | 1013.3 |
| 20260501182033 | 68 | 64 | 5.0 | 10.0 | 0.00 | 0.00 | 0.00 | 36 | 1013.4 |
| 20260501181531 | 66 | 77 | 3.0 | 4.0 | 0.00 | 0.00 | 0.00 | 36 | 1013.3 |
| 20260501181027 | 66 | 75 | 1.0 | 4.0 | 0.00 | 0.00 | 0.00 | 36 | 1013.4 |
| 20260501180525 | 66 | 343 | 4.0 | 7.0 | 0.00 | 0.00 | 0.00 | 36 | 1013.7 |
| 20260501180021 | 65 | 286 | 2.0 | 4.0 | 0.00 | 0.00 | 0.00 | 37 | 1013.7 |
| 20260501175518 | 66 | 291 | 1.0 | 6.0 | 0.00 | 0.00 | 0.00 | 37 | 1013.8 |
| 20260501175014 | 65 | 11 | 1.0 | 2.0 | 0.00 | 0.00 | 0.00 | 41 | 1013.8 |
| 20260501174512 | 64 | 296 | 0.0 | 3.0 | 0.00 | 0.00 | 0.00 | 37 | 1014.0 |
| 20260501174009 | 64 | 59 | 3.0 | 7.0 | 0.00 | 0.00 | 0.00 | 37 | 1014.1 |
| 20260501173507 | 65 | 240 | 2.0 | 7.0 | 0.00 | 0.00 | 0.00 | 38 | 1014.2 |
| 20260501173003 | 65 | 152 | 0.0 | 6.0 | 0.00 | 0.00 | 0.00 | 36 | 1014.2 |
| 20260501172458 | 64 | 53 | 1.0 | 4.0 | 0.00 | 0.00 | 0.00 | 38 | 1014.2 |
| 20260501171954 | 64 | 281 | 0.0 | 3.0 | 0.00 | 0.00 | 0.00 | 38 | 1014.2 |
| 20260501171450 | 64 | 55 | 3.0 | 7.0 | 0.00 | 0.00 | 0.00 | 38 | 1014.3 |
| 20260501170947 | 64 | 351 | 1.0 | 3.0 | 0.00 | 0.00 | 0.00 | 36 | 1014.0 |
| 20260501170444 | 64 | 277 | 1.0 | 3.0 | 0.00 | 0.00 | 0.00 | 40 | 1014.1 |
| 20260501165942 | 64 | 32 | 2.0 | 3.0 | 0.00 | 0.00 | 0.00 | 39 | 1014.3 |
| 20260501165439 | 63 | 6 | 2.0 | 6.0 | 0.00 | 0.00 | 0.00 | 40 | 1014.6 |
| 20260501164936 | 63 | 85 | 4.0 | 7.0 | 0.00 | 0.00 | 0.00 | 38 | 1014.5 |
| 20260501164434 | 63 | 20 | 4.0 | 6.0 | 0.00 | 0.00 | 0.00 | 40 | 1014.6 |
| 20260501163931 | 63 | 27 | 2.0 | 4.0 | 0.00 | 0.00 | 0.00 | 40 | 1014.6 |
| 20260501163426 | 64 | 227 | 3.0 | 6.0 | 0.00 | 0.00 | 0.00 | 39 | 1014.8 |
| 20260501162924 | 64 | 232 | 2.0 | 4.0 | 0.00 | 0.00 | 0.00 | 37 | 1014.8 |
| 20260501162420 | 63 | 332 | 4.0 | 6.0 | 0.00 | 0.00 | 0.00 | 39 | 1015.0 |
| 20260501161917 | 62 | 15 | 3.0 | 3.0 | 0.00 | 0.00 | 0.00 | 38 | 1014.8 |
| 20260501161414 | 62 | 40 | 3.0 | 3.0 | 0.00 | 0.00 | 0.00 | 39 | 1015.0 |
| 20260501160911 | 62 | 40 | 2.0 | 3.0 | 0.00 | 0.00 | 0.00 | 39 | 1015.1 |
| 20260501160407 | 62 | 273 | 0.0 | 3.0 | 0.00 | 0.00 | 0.00 | 39 | 1015.1 |
| 20260501155905 | 62 | 275 | 3.0 | 4.0 | 0.00 | 0.00 | 0.00 | 39 | 1015.1 |
| 20260501155401 | 62 | 11 | 2.0 | 4.0 | 0.00 | 0.00 | 0.00 | 39 | 1015.3 |
| 20260501154858 | 61 | 147 | 1.0 | 4.0 | 0.00 | 0.00 | 0.00 | 40 | 1015.3 |
| 20260501154356 | 61 | 223 | 0.0 | 1.0 | 0.00 | 0.00 | 0.00 | 41 | 1015.2 |
| 20260501153853 | 61 | 238 | 1.0 | 4.0 | 0.00 | 0.00 | 0.00 | 41 | 1015.4 |
| 20260501153350 | 61 | 201 | 6.0 | 8.0 | 0.00 | 0.00 | 0.00 | 41 | 1015.4 |
| 20260501152845 | 61 | 185 | 3.0 | 6.0 | 0.00 | 0.00 | 0.00 | 40 | 1015.4 |
| 20260501152344 | 61 | 285 | 2.0 | 3.0 | 0.00 | 0.00 | 0.00 | 39 | 1015.5 |
| 20260501151841 | 60 | 191 | 3.0 | 4.0 | 0.00 | 0.00 | 0.00 | 42 | 1015.8 |
| 20260501151337 | 60 | 190 | 1.0 | 3.0 | 0.00 | 0.00 | 0.00 | 42 | 1015.5 |
| 20260501150833 | 60 | 313 | 3.0 | 7.0 | 0.00 | 0.00 | 0.00 | 46 | 1015.5 |
| 20260501150330 | 60 | 198 | 3.0 | 4.0 | 0.00 | 0.00 | 0.00 | 40 | 1015.6 |
| 20260501145826 | 60 | 301 | 1.0 | 6.0 | 0.00 | 0.00 | 0.00 | 44 | 1015.7 |
| 20260501145323 | 59 | 204 | 3.0 | 3.0 | 0.00 | 0.00 | 0.00 | 45 | 1015.6 |
| 20260501144820 | 59 | 320 | 1.0 | 6.0 | 0.00 | 0.00 | 0.00 | 47 | 1015.6 |
| 20260501144315 | 58 | 296 | 2.0 | 3.0 | 0.00 | 0.00 | 0.00 | 46 | 1015.8 |
| 20260501143812 | 59 | 353 | 3.0 | 7.0 | 0.00 | 0.00 | 0.00 | 48 | 1015.5 |
| 20260501143309 | 58 | 188 | 4.0 | 6.0 | 0.00 | 0.00 | 0.00 | 48 | 1015.6 |